, LA

(GMT )
Salt Point

Weather History for KP92 - January, 2013

Change the Weather History Date:

Tuesday, January 1, 2013

  Actual Average Record
Temperature  
Mean Temperature 64 °F -  
Max Temperature 69 °F 58 °F 72 °F (2005)
Min Temperature 59 °F 43 °F 33 °F (2001)
Degree Days  
Heating Degree Days 1    
Growing Degree Days 14 (Base 50)    
Moisture  
Dew Point 57 °F    
Average Humidity 78    
Maximum Humidity 93    
Minimum Humidity 52    
Precipitation  
Precipitation 0.16 in - - ()
Sea Level Pressure  
Sea Level Pressure 29.99 in    
Wind  
Wind Speed 8 mph (NE)    
Max Wind Speed 12 mph    
Max Gust Speed 21 mph    
Averages and records for this station are not official NWS values.
T = Trace of Precipitation, MM = Missing Value Source: NWS Daily Summary

Daily Weather History Graph

Daily Weather History Graph

Search for Another Location

Airport or City:

Trip Planner

Search our weather history database for the weather conditions in past years. The results will help you decide how hot, cold, wet, or windy it might be!

Date:

Astronomy

Jan. 01, 2013 Rise Set
Actual Time 7:00 AM CST 5:17 PM CST
Civil Twilight 6:34 AM CST 5:43 PM CST
Nautical Twilight 6:04 AM CST 6:13 PM CST
Astronomical Twilight 5:35 AM CST 6:42 PM CST
Moon 9:27 PM CST (1/1) 9:31 AM CST (1/1)
Length of Visible Light 11h 09m
Length of Day
10h 17m
Waning Gibbous, 83% of the Moon is Illuminated
Jan 1
Waning Gibbous
Jan 4
Last Quarter
Jan 11
New
Jan 18
First Quarter
Jan 26
Full

Hourly Weather History & Observations

Time (CST) Temp. Dew Point Humidity Pressure Visibility Wind Dir Wind Speed Gust Speed Precip Events Conditions
12:53 AM 61.0 °F 57.0 °F 87% 29.99 in - SE 9.2 mph - N/A   Unknown
1:53 AM 63.0 °F 59.0 °F 87% 29.99 in - SSE 8.1 mph - N/A   Unknown
2:53 AM 64.0 °F 59.0 °F 84% 29.97 in - SSE 8.1 mph 17.3 mph N/A   Unknown
3:53 AM 64.0 °F 60.1 °F 87% 29.96 in - SSE 9.2 mph 17.3 mph N/A   Unknown
4:53 AM 63.0 °F 59.0 °F 87% 29.96 in - SSE 8.1 mph - N/A   Unknown
5:53 AM 63.0 °F 59.0 °F 87% 29.95 in - SSE 6.9 mph - N/A   Unknown
6:53 AM 63.0 °F 59.0 °F 87% 29.96 in - SSE 6.9 mph - N/A   Unknown
7:53 AM 63.0 °F 59.0 °F 87% 29.96 in - Variable 5.8 mph - N/A   Unknown
8:53 AM 64.9 °F 60.1 °F 84% 29.98 in - Variable 5.8 mph - N/A   Unknown
9:53 AM 69.1 °F 62.1 °F 78% 29.97 in - Variable 6.9 mph - N/A   Unknown
10:53 AM 68.0 °F 62.1 °F 81% 29.96 in - Variable 6.9 mph - N/A   Unknown
11:53 AM 69.1 °F 63.0 °F 81% 29.93 in - Variable 5.8 mph - N/A   Unknown
12:53 PM 68.0 °F 64.0 °F 87% 29.90 in - Variable 6.9 mph - N/A   Unknown
1:53 PM 68.0 °F 64.0 °F 87% 29.89 in - Variable 5.8 mph - N/A   Unknown
2:53 PM 62.1 °F 60.1 °F 93% 29.93 in - Variable 3.5 mph - 0.04 in   Unknown
3:53 PM 59.0 °F 55.9 °F 90% 29.94 in - NNW 10.4 mph 17.3 mph 0.11 in   Unknown
4:53 PM 60.1 °F 54.0 °F 80% 29.97 in - North 10.4 mph 20.7 mph N/A   Unknown
5:53 PM 66.0 °F 53.1 °F 63% 30.01 in - North 11.5 mph 19.6 mph N/A   Unknown
6:53 PM 66.0 °F 52.0 °F 60% 30.04 in - North 9.2 mph 19.6 mph N/A   Unknown
7:53 PM 64.0 °F 51.1 °F 63% 30.05 in - North 8.1 mph 17.3 mph N/A   Unknown
8:53 PM 66.9 °F 51.1 °F 57% 30.06 in - North 6.9 mph - N/A   Unknown
9:53 PM 68.0 °F 50.0 °F 52% 30.08 in - North 8.1 mph - N/A   Unknown
10:53 PM 64.9 °F 48.9 °F 56% 30.11 in - Variable 4.6 mph - 0.01 in   Unknown
11:53 PM 64.9 °F 48.9 °F 56% 30.10 in - North 8.1 mph - N/A   Unknown